Station EINL1 - 8764314 - North of Eugene Island, LA Image indicating link to RSS feed of recent meteorological observations for station EINL1


Conditions at EINL1 as of
(11:18 am CDT)
1618 GMT on 07/13/2024:
     

Click on the graph icon in the table below to see a time series plot of the last five days of that observation.

5-day plot - Wind Speed Wind Speed (WSPD): 0.0 kts
5-day plot - Wind Gust Wind Gust (GST): 1.0 kts
5-day plot - Atmospheric Pressure Atmospheric Pressure (PRES):30.21 in
5-day plot - Wind Speed at 10 Meters Wind Speed at 10 meters (WSPD10M): 0.0 kts
5-day plot - Wind Speed at 20 Meters Wind Speed at 20 meters (WSPD20M): 0.0 kts
5-day plot -  Wind Speed, Wind Gust and Atmospheric Pressure Combined plot of Wind Speed, Gust, and Air Pressure
NOS Water Level Observation Network Water Level
Previous observations
TIME
(CDT)
5-day plot - Wind Direction
WDIR
 
5-day plot - Wind Speed
WSPD
kts
5-day plot - Wind Gust
GST
kts
5-day plot - Wave Height
WVHT
ft
5-day plot - Dominant Wave Period
DPD
sec
5-day plot - Average Wave Period
APD
sec
5-day plot - Mean Wave Direction
MWD
 
5-day plot - Atmospheric Pressure
PRES
in
5-day plot - Pressure Tendency
PTDY
in
5-day plot - Air Temperature
ATMP
°F
5-day plot - Water Temperature
WTMP
°F
5-day plot - Dew Point
DEWP
°F
5-day plot - Salinity
SAL
psu
5-day plot - Visibility
VIS
nmi
5-day plot - Tide (above MLLW)
TIDE
ft
2024-07-13 11:12 am- 0.0 1.0----30.21-------
2024-07-13 11:06 am- 0.0 1.9----30.21-------
2024-07-13 11:00 am- 0.0 1.0----30.21+0.03 87.4 88.0 77.9---
2024-07-13 10:54 am- 0.0 2.9----30.20- 86.4 88.0 77.7---
2024-07-13 10:48 amENE 1.9 2.9----30.20- 86.2 88.0 77.7---
2024-07-13 10:42 am E 2.9 4.1----30.20- 86.0 87.6 77.9---
2024-07-13 10:36 amENE 2.9 4.1----30.20- 86.0 87.8 77.4---
2024-07-13 10:30 am NE 2.9 4.1----30.20- 86.4 87.8 77.5---
2024-07-13 10:24 am NE 1.9 4.1----30.20- 86.2 87.8 77.2---
2024-07-13 10:18 amENE 1.9 2.9----30.20- 86.2 87.8 77.2---
2024-07-13 10:12 amENE 2.9 4.1----30.20- 86.2 87.8 76.8---
2024-07-13 10:06 amENE 1.0 2.9----30.20- 86.7 87.8 77.4---
2024-07-13 10:00 am NE 1.9 4.1----30.20+0.04 86.4 87.8 76.8---
2024-07-13 09:54 amENE 2.9 4.1----30.19- 85.8 87.8 76.8---
2024-07-13 09:48 am NE 4.1 5.1----30.19- 85.6 87.6 77.2---
2024-07-13 09:42 am NE 4.1 4.1----30.19- 85.6 87.6 77.0---
2024-07-13 09:36 amENE 4.1 5.1----30.20- 85.6 87.6 77.0---
2024-07-13 09:30 am NE 4.1 5.1----30.19- 86.0 87.6 77.2---
2024-07-13 09:24 am NE 4.1 5.1----30.20- 86.0 87.4 77.0---
2024-07-13 09:18 amNNE 4.1 6.0----30.20- 86.2 87.4 76.8---
2024-07-13 09:12 am NE 5.1 6.0----30.20- 85.6 87.4 76.8---
2024-07-13 09:06 am NE 4.1 6.0----30.20- 85.8 87.4 76.8---
2024-07-13 09:00 am NE 5.1 5.1----30.19+0.06 85.5 87.4 76.6---
2024-07-13 08:54 am NE 4.1 5.1----30.19- 85.6 87.4 76.5---
2024-07-13 08:48 amNNE 5.1 7.0----30.19- 85.6 87.3 77.0---
2024-07-13 08:42 amNNE 5.1 6.0----30.19- 85.5 87.3 77.7---
2024-07-13 08:36 am NE 5.1 6.0----30.19- 85.5 87.3 78.1---
2024-07-13 08:30 am NE 5.1 6.0----30.19- 85.1 87.3 78.1---
2024-07-13 08:24 amNNE 5.1 5.1----30.19- 85.3 87.3 77.7---
2024-07-13 08:18 amNNE 5.1 6.0----30.19- 85.5 87.1 77.7---
2024-07-13 08:12 amNNE 6.0 8.0----30.19- 85.5 87.1 77.7---
2024-07-13 08:06 amNNE 6.0 7.0----30.18- 85.6 87.1 77.2---
2024-07-13 08:00 amNNE 5.1 6.0----30.18+0.06 85.8 86.9 77.4---
2024-07-13 07:54 amNNE 5.1 6.0----30.18- 85.6 86.9 77.4---
2024-07-13 07:48 am NE 5.1 6.0----30.17- 85.5 86.7 77.4---
2024-07-13 07:42 amNNE 5.1 7.0----30.17- 85.5 86.7 77.9---
2024-07-13 07:36 am NE 2.9 6.0----30.17- 85.8 86.9 78.3---
2024-07-13 07:30 am NE 6.0 6.0----30.16- 85.3 86.9 78.1---
2024-07-13 07:24 amNNE 4.1 5.1----30.16- 86.4 86.9 79.2---
2024-07-13 07:18 am N 4.1 5.1----30.16- 86.7 86.7 78.4---
2024-07-13 07:12 am W 4.1 5.1----30.16- 86.5 86.7 76.8---
2024-07-13 07:06 amWNW 4.1 6.0----30.16- 86.7 86.5 76.3---
2024-07-13 07:00 am W 4.1 5.1----30.16+0.05 86.4 86.7 75.7---
2024-07-13 06:54 amWNW 4.1 5.1----30.16- 86.2 86.9 76.1---
2024-07-13 06:48 amWNW 5.1 5.1----30.15-- 87.1----
2024-07-13 06:42 am W 4.1 6.0----30.15-- 87.1----
2024-07-13 06:36 am W 4.1 5.1----30.15-- 87.1----
2024-07-13 06:30 amWNW 4.1 5.1----30.15-- 87.1----
2024-07-13 06:24 am W 5.1 6.0----30.14-- 87.1----
2024-07-13 06:18 am W 5.1 5.1----30.14- 85.8 87.1 76.8---
2024-07-13 06:12 am W 4.1 5.1----30.14- 85.6 87.1 76.6---
2024-07-13 06:06 am W 4.1 5.1----30.13- 86.0 87.1 77.2---
2024-07-13 06:00 am W 4.1 5.1----30.13- 85.8 87.1 76.8---
2024-07-13 05:54 am W 4.1 7.0----30.13- 86.0 87.1 76.8---
2024-07-13 05:48 am W 4.1 5.1----30.13- 86.0 87.1 76.8---
2024-07-13 05:42 amWNW 5.1 7.0----30.12- 86.0 87.1 76.5---
2024-07-13 05:36 am W 5.1 7.0----30.12- 86.4 86.9 77.5---
2024-07-13 05:30 am W 6.0 7.0----30.12- 86.0 86.9 76.6---
2024-07-13 05:24 amWSW 5.1 6.0----30.12- 86.0 86.5 77.2---
2024-07-13 05:18 am W 5.1 6.0----30.12- 86.2 86.7 76.8---
2024-07-13 05:12 am SW 4.1 5.1----30.12- 86.2 86.7 76.6---
2024-07-13 05:06 am W 4.1 5.1----30.12- 86.2 86.9 76.3---
2024-07-13 05:00 amWSW 5.1 6.0----30.12+0.00- 86.9----
2024-07-13 04:54 am W 5.1 6.0----30.12-- 86.9----
2024-07-13 04:48 amWSW 5.1 8.0----30.12-- 86.9----
2024-07-13 04:42 amWSW 6.0 7.0----30.12-- 86.9----
2024-07-13 04:36 amWSW 6.0 7.0----30.12-- 87.1----
2024-07-13 04:30 amWSW 5.1 7.0----30.12- 86.2 87.1 75.4---
2024-07-13 04:24 am SW 5.1 7.0----30.11- 86.4 87.3 75.2---
2024-07-13 04:18 amWSW 7.0 7.0----30.11- 86.4 87.3 75.2---
2024-07-13 04:12 amWSW 7.0 8.0----30.11- 86.2 87.3 75.4---
2024-07-13 04:06 amWSW 6.0 8.0----30.11- 86.2 87.1 76.1---
2024-07-13 04:00 amWSW 7.0 8.0----30.11-0.01 86.2 87.1 75.9---
2024-07-13 03:54 amWSW 6.0 8.0----30.11- 86.2 87.1 76.1---
2024-07-13 03:48 amWSW 7.0 8.9----30.11- 86.4 87.1 75.4---
2024-07-13 03:42 amWSW 8.0 9.9----30.11- 86.4 87.1 75.0---
2024-07-13 03:36 amWSW 7.0 8.9----30.11- 86.4 87.1 76.3---
2024-07-13 03:30 amWSW 7.0 8.9----30.11- 86.2 87.3 76.3---
2024-07-13 03:24 amWSW 8.0 9.9----30.11- 86.4 87.4 76.5---
2024-07-13 03:18 am SW 8.0 11.1----30.11- 86.4 87.6 76.3---
2024-07-13 03:12 amWSW 8.9 9.9----30.11- 86.4 87.6 76.8---
2024-07-13 03:06 amWSW 8.9 11.1----30.11- 86.4 87.6 76.1---
2024-07-13 03:00 amWSW 9.9 12.0------ 86.4 87.8 76.5---
2024-07-13 02:54 amWSW 9.9 13.0------ 86.4 87.8 76.8---
2024-07-13 02:48 am SW 9.9 11.1----30.11- 86.4 87.8 76.8---
2024-07-13 02:42 am SW 9.9 12.0----30.11- 86.2 87.8 76.5---
2024-07-13 02:36 am SW 9.9 11.1----30.11- 86.2 87.8 76.1---
2024-07-13 02:30 am SW 9.9 12.0----30.11- 86.4 87.8 76.8---
2024-07-13 02:24 amWSW 9.9 14.0----30.11- 86.5 87.8 77.5---
2024-07-13 02:18 am SW 8.9 11.1----30.11- 86.5 87.8 77.4---
2024-07-13 02:12 am SW 9.9 12.0----30.11- 86.5 87.8 77.2---
2024-07-13 02:06 am SW 8.0 12.0----30.11- 86.9 87.8 78.1---
2024-07-13 02:00 am SW 9.9 12.0----30.11+0.00 86.7 88.0 77.2---
2024-07-13 01:54 am SW 6.0 8.0----30.12- 86.9 88.0 76.1---
2024-07-13 01:48 am SW 7.0 8.0----30.12- 86.9 88.0 76.3---
2024-07-13 01:42 am SW 6.0 8.0----30.12- 87.1 88.0 76.6---
2024-07-13 01:36 am SW 7.0 8.9----30.12- 87.1 88.0 75.7---
2024-07-13 01:30 amSSW 7.0 8.9----30.12- 87.1 88.0 75.7---
2024-07-13 01:24 am SW 7.0 8.9----30.12- 87.1 88.0 76.3---
2024-07-13 01:18 am SW 7.0 8.0----30.12- 87.1 88.0 76.3---
2024-07-13 01:12 amSSW 7.0 8.9----30.12- 87.1 87.8 75.7---
2024-07-13 01:06 amSSW 7.0 8.9----30.12- 87.1 88.0 75.9---
2024-07-13 01:00 amSSW 7.0 8.0----30.12+0.01 87.1 88.0 76.6---
2024-07-13 12:54 amSSW 7.0 8.0----30.12- 87.1 88.0 75.6---
2024-07-13 12:48 am S 6.0 8.0----30.12- 87.1 88.0 76.5---
2024-07-13 12:42 amSSW 7.0 9.9----30.12- 87.1 88.0 75.2---
2024-07-13 12:36 am S 8.0 8.9----30.12- 87.1 87.8 74.8---
2024-07-13 12:30 amSSW 6.0 9.9----30.12- 87.1 87.8 75.4---
2024-07-13 12:24 amSSW 6.0 8.9----30.12- 87.3 87.8 76.6---
2024-07-13 12:18 am S 8.0 9.9----30.12- 87.3 88.0 75.7---
2024-07-13 12:12 am S 8.0 8.9----30.12- 87.1 88.0 76.1---
2024-07-13 12:06 am S 8.0 9.9----30.12- 87.1 88.0 75.9---
2024-07-13 12:00 am S 7.0 8.9----30.11+0.02 87.1 88.0 76.5---
2024-07-12 11:54 pm S 8.0 9.9----30.12- 87.1 88.0 75.7---
2024-07-12 11:48 pmSSW 7.0 8.9----30.12- 87.3 88.0 76.3---
2024-07-12 11:42 pm S 7.0 9.9----30.12- 87.1 88.0 76.1---
2024-07-12 11:36 pm S 7.0 8.9----30.11- 87.3 87.8 77.0---
2024-07-12 11:30 pm S 8.9 9.9----30.11- 87.3 87.8 76.5---
2024-07-12 11:24 pm S 6.0 8.0----30.11- 87.4 87.8 77.7---
2024-07-12 11:18 pmSSW 6.0 7.0----30.11- 87.4 87.8 76.8---
2024-07-12 11:12 pmSSW 6.0 8.0----30.11- 87.3 87.8 76.5---
2024-07-12 11:06 pmSSW 7.0 8.0----30.11- 87.4 87.8 77.2---
2024-07-12 11:00 pm S 5.1 8.0----30.11+0.03 87.4 87.8 75.7---
2024-07-12 10:54 pm S 8.0 8.0----30.11- 87.4 87.8 75.4---
2024-07-12 10:48 pm S 7.0 8.0----30.11- 87.4 87.8 75.6---
2024-07-12 10:42 pm S 6.0 7.0----30.11- 87.4 87.8 75.0---
2024-07-12 10:36 pmSSW 6.0 8.9----30.11- 87.4 87.8 75.0---
2024-07-12 10:30 pmSSW 8.0 9.9----30.11- 87.4 87.8 75.4---
2024-07-12 10:24 pmSSW 6.0 8.0----30.11- 87.4 87.8 75.9---
2024-07-12 10:18 pmSSW 6.0 8.0----30.11- 87.4 87.8 75.4---
2024-07-12 10:12 pmSSW 6.0 7.0----30.11- 87.4 87.8 76.1---
2024-07-12 10:06 pm S 7.0 8.0----30.11- 87.3 87.8 75.4---
2024-07-12 10:00 pmSSW 6.0 7.0----30.10+0.02 87.4 87.8 76.6---
2024-07-12 09:54 pm S 7.0 8.9----30.10- 87.4 87.8 75.9---
2024-07-12 09:48 pmSSW 5.1 7.0----30.10- 87.6 87.8 74.8---
2024-07-12 09:42 pmSSW 6.0 8.0----30.10- 87.4 87.8 75.0---
2024-07-12 09:36 pm S 5.1 8.0----30.10- 87.4 87.8 75.9---
2024-07-12 09:30 pmSSW 6.0 8.0----30.09- 87.4 87.8 76.1---
2024-07-12 09:24 pmSSW 6.0 8.0----30.09- 87.4 87.8 75.6---
2024-07-12 09:18 pmSSW 6.0 7.0----30.09- 87.6 87.8 75.7---
2024-07-12 09:12 pmSSW 5.1 6.0----30.09- 87.6 87.8 75.9---
2024-07-12 09:06 pmSSW 5.1 6.0----30.09- 87.6 87.8 75.7---
2024-07-12 09:00 pmSSW 5.1 6.0----30.09+0.02 87.4 87.8 74.5---
2024-07-12 08:54 pmSSW 2.9 5.1----30.09- 87.6 87.8 75.9---
2024-07-12 08:48 pm SW 5.1 6.0----30.09- 87.6 87.8 75.2---
2024-07-12 08:42 pmSSW 5.1 6.0----30.09- 87.6 87.8 74.8---
2024-07-12 08:36 pm SW 6.0 7.0----30.09- 87.4 88.0 75.0---
2024-07-12 08:30 pm SW 5.1 7.0----30.09- 87.4 87.8 75.7---
2024-07-12 08:24 pm SW 6.0 7.0----30.09- 87.6 87.8 75.2---
2024-07-12 08:18 pmSSW 6.0 8.0----30.09- 87.4 87.8 75.2---
2024-07-12 08:12 pmSSW 6.0 8.0----30.09- 87.4 87.8 75.9---
2024-07-12 08:06 pmSSW 7.0 8.0----30.09- 87.4 87.8 75.9---
2024-07-12 08:00 pm SW 6.0 8.0----30.09+0.02 87.6 87.8 76.1---
2024-07-12 07:54 pmSSW 7.0 8.9----30.09- 87.4 87.8 75.6---
2024-07-12 07:48 pm SW 8.0 8.9----30.09- 87.4 87.8 76.5---
2024-07-12 07:42 pmSSW 6.0 8.0----30.09- 87.6 87.8 76.1---
2024-07-12 07:36 pm SW 6.0 7.0----30.09- 87.6 87.8 76.3---
2024-07-12 07:30 pm SW 5.1 8.9----30.09- 87.6 88.0 75.6---
2024-07-12 07:24 pm SW 6.0 8.0----30.09- 87.6 88.0 76.3---
2024-07-12 07:18 pm SW 6.0 8.0----30.08- 87.6 88.0 75.4---
2024-07-12 07:12 pm SW 6.0 8.0----30.08- 87.6 88.0 75.9---
2024-07-12 07:06 pm SW 5.1 8.0----30.08- 87.8 88.0 76.8---
2024-07-12 07:00 pmWSW 6.0 8.0----30.08+0.00 87.6 88.0 75.6---
2024-07-12 06:54 pmSSW 6.0 8.0----30.08- 87.6 88.0 75.6---
2024-07-12 06:48 pm SW 7.0 8.0----30.08- 87.6 88.0 75.2---
2024-07-12 06:42 pmWSW 6.0 8.9----30.08- 87.8 88.0 75.6---
2024-07-12 06:36 pmWSW 5.1 7.0----30.08- 87.8 88.0 76.1---
2024-07-12 06:30 pmWSW 7.0 8.9----30.08- 87.6 88.0 75.6---
2024-07-12 06:24 pmWSW 6.0 8.0----30.08- 87.6 88.0 75.7---
2024-07-12 06:18 pm SW 8.0 9.9----30.07- 87.6 88.0 76.5---
2024-07-12 06:12 pmWSW 6.0 9.9----30.07- 87.8 88.0 76.1---
2024-07-12 06:06 pm SW 7.0 8.9----30.07- 87.4 88.0 75.7---
2024-07-12 06:00 pm SW 7.0 8.9----30.07-0.01 87.3 88.0 76.1---
2024-07-12 05:54 pm SW 6.0 8.0----30.07- 87.4 88.0 76.3---
2024-07-12 05:48 pm SW 7.0 8.0----30.07-- 88.0----
2024-07-12 05:42 pmSSW 7.0 8.9----30.07-- 88.0----
2024-07-12 05:36 pm SW 8.0 8.9----30.07-- 88.0----
2024-07-12 05:30 pmSSW 6.0 7.0----30.07- 87.4 88.0 76.5---
2024-07-12 05:24 pm SW 6.0 7.0----30.07- 87.3 88.0 75.9---
2024-07-12 05:18 pm SW 5.1 6.0----30.07-- 88.0----
2024-07-12 05:12 pm SW 6.0 8.0----30.07-- 88.0----
2024-07-12 05:06 pmWSW 5.1 8.0----30.07-- 88.0----
2024-07-12 05:00 pm SW 7.0 8.9----30.06-0.03 87.4 88.0 74.7---
2024-07-12 04:54 pmSSW 6.0 8.9----30.06- 87.3 88.0 75.6---
2024-07-12 04:48 pm SW 7.0 8.9----30.06- 87.3 88.0 74.7---
2024-07-12 04:42 pmWSW 6.0 8.9----30.06- 87.4 88.0 75.0---
2024-07-12 04:36 pm SW 6.0 8.0----30.06- 87.4 87.8 74.3---
2024-07-12 04:30 pmWSW 8.0 8.9----30.06- 87.3 87.8 73.6---
2024-07-12 04:24 pm SW 7.0 8.9----30.07- 87.4 87.8 74.7---
2024-07-12 04:18 pmWSW 8.0 9.9----30.07- 87.4 87.8 73.4---
2024-07-12 04:12 pmWSW 8.0 8.9----30.07- 87.4 87.8 73.4---
2024-07-12 04:06 pm SW 7.0 9.9----30.07- 87.3 87.8 74.1---
2024-07-12 04:00 pm SW 7.0 8.9----30.08-0.04 87.4 87.8 74.8---
2024-07-12 03:54 pm SW 8.0 8.9----30.08- 87.3 87.8 73.8---
2024-07-12 03:48 pm SW 7.0 8.0----30.08- 87.1 87.8 74.1---
2024-07-12 03:42 pm SW 7.0 8.0----30.07- 87.3 87.8 75.2---
2024-07-12 03:36 pmWSW 7.0 8.0----30.07- 87.3 87.8 73.9---
2024-07-12 03:30 pmWSW 6.0 8.0----30.07- 87.3 87.8 73.4---
2024-07-12 03:24 pm SW 6.0 7.0----30.07- 87.1 88.0 73.6---
2024-07-12 03:18 pm SW 6.0 8.0----30.08- 86.9 88.0 73.2---
2024-07-12 03:12 pm SW 6.0 8.0----30.08- 87.1 88.0 73.4---
2024-07-12 03:06 pm SW 6.0 7.0----30.08- 86.7 88.0 73.6---
2024-07-12 03:00 pm SW 6.0 6.0----30.08-0.04 86.9 88.0 72.7---
2024-07-12 02:54 pmSSW 5.1 6.0----30.08- 87.1 88.0 74.3---
2024-07-12 02:48 pmWSW 4.1 6.0----30.08- 87.6 88.0 74.1---
2024-07-12 02:42 pmWSW 2.9 5.1----30.08- 87.4 88.0 74.7---
2024-07-12 02:36 pm W 5.1 6.0----30.08- 87.6 88.0 74.8---
2024-07-12 02:30 pm W 2.9 5.1----30.08- 87.4 88.0 74.1---
2024-07-12 02:24 pmWNW 2.9 4.1----30.09- 87.8 88.0 75.0---
2024-07-12 02:18 pm W 2.9 4.1----30.09- 87.8 88.0 73.9---
2024-07-12 02:12 pmWNW 2.9 4.1----30.09- 88.0 88.0 73.9---
2024-07-12 02:06 pm W 2.9 4.1----30.10- 87.4 87.8 74.3---
2024-07-12 02:00 pm W 2.9 5.1----30.09-0.02 87.1 87.8 74.8---
2024-07-12 01:54 pm W 2.9 5.1----30.10- 86.9 87.8 74.7---
2024-07-12 01:48 pm W 2.9 4.1----30.10- 87.3 87.6 75.7---
2024-07-12 01:42 pm W 4.1 6.0----30.10- 87.1 87.4 75.9---
2024-07-12 01:36 pmWSW 1.9 4.1----30.10- 86.9 87.4 75.6---
2024-07-12 01:30 pm W 4.1 5.1----30.11- 87.3 87.4 75.4---
2024-07-12 01:24 pm NW 4.1 5.1----30.11- 88.2 87.4 75.9---
2024-07-12 01:18 pm NW 2.9 5.1----30.11- 87.6 87.4 75.7---
2024-07-12 01:12 pmWNW 4.1 6.0----30.11- 87.3 87.4 76.3---
2024-07-12 01:06 pmWNW 2.9 5.1----30.11- 86.7 87.4 76.3---
2024-07-12 01:00 pm W 5.1 5.1----30.11+0.00 86.5 87.3 76.3---
2024-07-12 12:54 pmWNW 1.9 5.1----30.12- 87.4 87.1 76.8---
2024-07-12 12:48 pm NW 4.1 5.1----30.12- 87.8 87.1 76.3---
2024-07-12 12:42 pmWNW 4.1 5.1----30.12- 87.1 87.4 76.6---
2024-07-12 12:36 pm W 2.9 5.1----30.12- 86.9 87.4 77.0---
2024-07-12 12:30 pm NW 1.9 4.1----30.12- 87.6 87.3 77.9---
2024-07-12 12:24 pmWNW 2.9 5.1----30.12- 87.6 87.1 77.7---
2024-07-12 12:18 pmWNW 2.9 5.1----30.12- 87.4 87.1 77.2---
2024-07-12 12:12 pmWNW 1.9 4.1----30.12- 86.5 87.1 77.4---
2024-07-12 12:06 pm NW 2.9 6.0----30.11- 86.7 87.1 78.1---
2024-07-12 12:00 pmWNW 5.1 6.0----30.11+0.02 86.4 87.3 77.4---
2024-07-12 11:54 amWNW 4.1 6.0----30.12- 86.0 87.1 77.5---
2024-07-12 11:48 amWNW 4.1 5.1----30.12- 86.9 87.1 77.5---
2024-07-12 11:42 amWNW 4.1 4.1----30.12- 86.9 87.1 77.9---
2024-07-12 11:36 amWNW 2.9 5.1----30.12- 85.8 87.1 77.5---
2024-07-12 11:30 amWNW 4.1 5.1----30.12- 85.5 87.3 77.5---
2024-07-12 11:24 am W 4.1 5.1----30.12- 85.6 87.1 77.9---
2024-07-12 11:18 amWNW 4.1 5.1----30.11- 86.5 87.1 77.9---
2024-07-12 11:12 amWNW 2.9 5.1----30.12- 86.2 86.9 78.1---
2024-07-12 11:06 am NW 2.9 4.1----30.12- 88.2 86.7 77.9---
2024-07-12 11:00 am NW 1.9 4.1----30.12+0.04 88.2 86.5 78.4---
2024-07-12 10:54 am NW 1.9 2.9----30.11- 88.0 86.5 78.3---